2007/08/21

Física das películas (III)



... continuación de Física das películas (I) e Física das películas (II)

Física das películas (II)






... continuación de Física das películas (I)

Física das películas (I)







Ligando coa entrada anterior de física das Películas, atopo a presentación feita por Paula e Noemí para a feira do 2006 (XII Edición da Feira da Ciencia e Tecnoloxía do IES Porta da Auga) e, convertida a .jpg, as imaxes que adxunto e que continúa en (II) e (III)

Por esta volta, quedámonos sen eclipse

En Ribadeo, se entende, o do 28 de agosto de 2007. Ver http://ciencia.nasa.gov/headlines/y2007/images/dreamyeclipse/LE2007Aug28-Fig3.GIF

2007/08/15

Nubes III

Un pequeno vídeo de Youtube...

Nubes II






Os datos meteorolóxicos están en 'nubes I'.

Nubes I






As nubes son en xeral bonitas, pero hai días nos que aínda se ven máis. Ademáis, son expoñente do tempo meteorolóxico que está a facer. Comezo con este unha serie de post (posiblemente 6) con fotos de nubes tomadas o 14 de agosto de 2007 sobre Ribadeo. Adúntanse tamén os datos da Pedro Murias correspondentes ó tempo no que foron tomadas a fotos, extraídos da páxina http://www.meteogalicia.es/galego/observacion/estacions/DatosHistoricosTaboas_dezminutal.asp?est=10047¶m=83,86,10018,10021,10022,10027,88,90,10006,10006,10011,81,82,10003,10015,10001,10002,10024&data1=14/8/2007&data2=15/8/2007.
1 2007-08-14 20:00:00 Temperatura media (ºC) 24,72
1 2007-08-14 20:10:00 Temperatura media (ºC) 24,64
1 2007-08-14 20:20:00 Temperatura media (ºC) 24,61
1 2007-08-14 20:30:00 Temperatura media (ºC) 24,52
1 2007-08-14 20:40:00 Temperatura media (ºC) 24,48
1 2007-08-14 20:50:00 Temperatura media (ºC) 24,4
1 2007-08-14 21:00:00 Temperatura media (ºC) 24,43
1 2007-08-14 21:10:00 Temperatura media (ºC) 24,44
1 2007-08-14 21:20:00 Temperatura media (ºC) 24,38
1 2007-08-14 21:30:00 Temperatura media (ºC) 24,3
1 2007-08-14 21:40:00 Temperatura media (ºC) 24,33
1 2007-08-14 21:50:00 Temperatura media (ºC) 24,42
1 2007-08-14 22:00:00 Temperatura media (ºC) 24,45
1 2007-08-14 20:00:00 Humidade relativa (%) 62
1 2007-08-14 20:10:00 Humidade relativa (%) 63
1 2007-08-14 20:20:00 Humidade relativa (%) 63
1 2007-08-14 20:30:00 Humidade relativa (%) 63
1 2007-08-14 20:40:00 Humidade relativa (%) 63
1 2007-08-14 20:50:00 Humidade relativa (%) 63
1 2007-08-14 21:00:00 Humidade relativa (%) 63
1 2007-08-14 21:10:00 Humidade relativa (%) 63
1 2007-08-14 21:20:00 Humidade relativa (%) 64
1 2007-08-14 21:30:00 Humidade relativa (%) 64
1 2007-08-14 21:40:00 Humidade relativa (%) 64
1 2007-08-14 21:50:00 Humidade relativa (%) 63
1 2007-08-14 22:00:00 Humidade relativa (%) 63
1 2007-08-14 20:00:00 Temperatura de Orballo (ºC) 16,95
1 2007-08-14 20:10:00 Temperatura de Orballo (ºC) 17,13
1 2007-08-14 20:20:00 Temperatura de Orballo (ºC) 17,1
1 2007-08-14 20:30:00 Temperatura de Orballo (ºC) 17,01
1 2007-08-14 20:40:00 Temperatura de Orballo (ºC) 16,98
1 2007-08-14 20:50:00 Temperatura de Orballo (ºC) 16,9
1 2007-08-14 21:00:00 Temperatura de Orballo (ºC) 16,93
1 2007-08-14 21:10:00 Temperatura de Orballo (ºC) 16,94
1 2007-08-14 21:20:00 Temperatura de Orballo (ºC) 17,13
1 2007-08-14 21:30:00 Temperatura de Orballo (ºC) 17,05
1 2007-08-14 21:40:00 Temperatura de Orballo (ºC) 17,08
1 2007-08-14 21:50:00 Temperatura de Orballo (ºC) 16,92
1 2007-08-14 22:00:00 Temperatura de Orballo (ºC) 16,95
1 2007-08-14 20:00:00 Temperatura do solo a 10 cm (ºC) 21,59
1 2007-08-14 20:10:00 Temperatura do solo a 10 cm (ºC) 21,75
1 2007-08-14 20:20:00 Temperatura do solo a 10 cm (ºC) 21,54
1 2007-08-14 20:30:00 Temperatura do solo a 10 cm (ºC) 21,59
1 2007-08-14 20:40:00 Temperatura do solo a 10 cm (ºC) 21,64
1 2007-08-14 20:50:00 Temperatura do solo a 10 cm (ºC) 21,52
1 2007-08-14 21:00:00 Temperatura do solo a 10 cm (ºC) 21,34
1 2007-08-14 21:10:00 Temperatura do solo a 10 cm (ºC) 21,74
1 2007-08-14 21:20:00 Temperatura do solo a 10 cm (ºC) 21,39
1 2007-08-14 21:30:00 Temperatura do solo a 10 cm (ºC) 21,53
1 2007-08-14 21:40:00 Temperatura do solo a 10 cm (ºC) 22,38
1 2007-08-14 21:50:00 Temperatura do solo a 10 cm (ºC) 21,78
1 2007-08-14 22:00:00 Temperatura do solo a 10 cm (ºC) 22,01
1 2007-08-14 20:00:00 Temperatura a 10 cm do chan (ºC) 23,98
1 2007-08-14 20:10:00 Temperatura a 10 cm do chan (ºC) 23,97
1 2007-08-14 20:20:00 Temperatura a 10 cm do chan (ºC) 23,92
1 2007-08-14 20:30:00 Temperatura a 10 cm do chan (ºC) 23,82
1 2007-08-14 20:40:00 Temperatura a 10 cm do chan (ºC) 23,81
1 2007-08-14 20:50:00 Temperatura a 10 cm do chan (ºC) 23,71
1 2007-08-14 21:00:00 Temperatura a 10 cm do chan (ºC) 23,84
1 2007-08-14 21:10:00 Temperatura a 10 cm do chan (ºC) 23,75
1 2007-08-14 21:20:00 Temperatura a 10 cm do chan (ºC) 23,59
1 2007-08-14 21:30:00 Temperatura a 10 cm do chan (ºC) 23,46
1 2007-08-14 21:40:00 Temperatura a 10 cm do chan (ºC) 23,46
1 2007-08-14 21:50:00 Temperatura a 10 cm do chan (ºC) 23,63
1 2007-08-14 22:00:00 Temperatura a 10 cm do chan (ºC) 23,78
1 2007-08-14 20:00:00 Humidade do solo (%) 6,19
1 2007-08-14 20:10:00 Humidade do solo (%) 6,19
1 2007-08-14 20:20:00 Humidade do solo (%) 6,19
1 2007-08-14 20:30:00 Humidade do solo (%) 6,2
1 2007-08-14 20:40:00 Humidade do solo (%) 6,2
1 2007-08-14 20:50:00 Humidade do solo (%) 6,2
1 2007-08-14 21:00:00 Humidade do solo (%) 6,2
1 2007-08-14 21:10:00 Humidade do solo (%) 6,2
1 2007-08-14 21:20:00 Humidade do solo (%) 6,21
1 2007-08-14 21:30:00 Humidade do solo (%) 6,21
1 2007-08-14 21:40:00 Humidade do solo (%) 6,2
1 2007-08-14 21:50:00 Humidade do solo (%) 6,21
1 2007-08-14 22:00:00 Humidade do solo (%) 6,2
1 2007-08-14 20:00:00 Radiación solar global (W/m2) 0
1 2007-08-14 20:10:00 Radiación solar global (W/m2) -1
1 2007-08-14 20:20:00 Radiación solar global (W/m2) -1
1 2007-08-14 20:30:00 Radiación solar global (W/m2) -1
1 2007-08-14 20:40:00 Radiación solar global (W/m2) -1
1 2007-08-14 20:50:00 Radiación solar global (W/m2) -1
1 2007-08-14 21:00:00 Radiación solar global (W/m2) -1
1 2007-08-14 21:10:00 Radiación solar global (W/m2) -1
1 2007-08-14 21:20:00 Radiación solar global (W/m2) -1
1 2007-08-14 21:30:00 Radiación solar global (W/m2) -1
1 2007-08-14 21:40:00 Radiación solar global (W/m2) -1
1 2007-08-14 21:50:00 Radiación solar global (W/m2) -1
1 2007-08-14 22:00:00 Radiación solar global (W/m2) -1
1 2007-08-14 20:00:00 Radiacion solar directa (W/m2) 17
1 2007-08-14 20:10:00 Radiacion solar directa (W/m2) 17
1 2007-08-14 20:20:00 Radiacion solar directa (W/m2) 16
1 2007-08-14 20:30:00 Radiacion solar directa (W/m2) 16
1 2007-08-14 20:40:00 Radiacion solar directa (W/m2) 16
1 2007-08-14 20:50:00 Radiacion solar directa (W/m2) 16
1 2007-08-14 21:00:00 Radiacion solar directa (W/m2) 17
1 2007-08-14 21:10:00 Radiacion solar directa (W/m2) 15
1 2007-08-14 21:20:00 Radiacion solar directa (W/m2) 14
1 2007-08-14 21:30:00 Radiacion solar directa (W/m2) 15
1 2007-08-14 21:40:00 Radiacion solar directa (W/m2) 14
1 2007-08-14 21:50:00 Radiacion solar directa (W/m2) 15
1 2007-08-14 22:00:00 Radiacion solar directa (W/m2) 16
1 2007-08-14 20:00:00 Horas de Sol (hr) 0
1 2007-08-14 20:10:00 Horas de Sol (hr) 0
1 2007-08-14 20:20:00 Horas de Sol (hr) 0
1 2007-08-14 20:30:00 Horas de Sol (hr) 0
1 2007-08-14 20:40:00 Horas de Sol (hr) 0
1 2007-08-14 20:50:00 Horas de Sol (hr) 0
1 2007-08-14 21:00:00 Horas de Sol (hr) 0
1 2007-08-14 21:10:00 Horas de Sol (hr) 0
1 2007-08-14 21:20:00 Horas de Sol (hr) 0
1 2007-08-14 21:30:00 Horas de Sol (hr) 0
1 2007-08-14 21:40:00 Horas de Sol (hr) 0
1 2007-08-14 21:50:00 Horas de Sol (hr) 0
1 2007-08-14 22:00:00 Horas de Sol (hr) 0
1 2007-08-14 20:00:00 Radiación ultravioleta B (W/m2) 0
1 2007-08-14 20:10:00 Radiación ultravioleta B (W/m2) -0,0001
1 2007-08-14 20:20:00 Radiación ultravioleta B (W/m2) 0
1 2007-08-14 20:30:00 Radiación ultravioleta B (W/m2) 0
1 2007-08-14 20:40:00 Radiación ultravioleta B (W/m2) 0
1 2007-08-14 20:50:00 Radiación ultravioleta B (W/m2) 0
1 2007-08-14 21:00:00 Radiación ultravioleta B (W/m2) 0
1 2007-08-14 21:10:00 Radiación ultravioleta B (W/m2) -0,0001
1 2007-08-14 21:20:00 Radiación ultravioleta B (W/m2) 0
1 2007-08-14 21:30:00 Radiación ultravioleta B (W/m2) 0
1 2007-08-14 21:40:00 Radiación ultravioleta B (W/m2) -0,0002
1 2007-08-14 21:50:00 Radiación ultravioleta B (W/m2) -0,0001
1 2007-08-14 22:00:00 Radiación ultravioleta B (W/m2) -0,0001
1 2007-08-14 19:20:00 Velocidade media do vento (m/s) 10,25
1 2007-08-14 19:30:00 Velocidade media do vento (m/s) 10,08
1 2007-08-14 19:40:00 Velocidade media do vento (m/s) 10,16
1 2007-08-14 19:50:00 Velocidade media do vento (m/s) 10,97
1 2007-08-14 20:00:00 Velocidade media do vento (m/s) 11,21
1 2007-08-14 20:10:00 Velocidade media do vento (m/s) 11,11
1 2007-08-14 20:20:00 Velocidade media do vento (m/s) 11,59
1 2007-08-14 20:30:00 Velocidade media do vento (m/s) 11,73
1 2007-08-14 20:40:00 Velocidade media do vento (m/s) 10,99
1 2007-08-14 20:50:00 Velocidade media do vento (m/s) 9,67
1 2007-08-14 21:00:00 Velocidade media do vento (m/s) 10,05
1 2007-08-14 21:10:00 Velocidade media do vento (m/s) 10,1
1 2007-08-14 21:20:00 Velocidade media do vento (m/s) 8,18
1 2007-08-14 21:30:00 Velocidade media do vento (m/s) 8,37
1 2007-08-14 21:40:00 Velocidade media do vento (m/s) 8,6
1 2007-08-14 21:50:00 Velocidade media do vento (m/s) 9,91
1 2007-08-14 22:00:00 Velocidade media do vento (m/s) 9,31
1 2007-08-14 20:00:00 Dirección media do vento (graos) 210
1 2007-08-14 20:10:00 Dirección media do vento (graos) 212
1 2007-08-14 20:20:00 Dirección media do vento (graos) 210
1 2007-08-14 20:30:00 Dirección media do vento (graos) 207
1 2007-08-14 20:40:00 Dirección media do vento (graos) 215
1 2007-08-14 20:50:00 Dirección media do vento (graos) 211
1 2007-08-14 21:00:00 Dirección media do vento (graos) 210
1 2007-08-14 21:10:00 Dirección media do vento (graos) 215
1 2007-08-14 21:20:00 Dirección media do vento (graos) 217
1 2007-08-14 21:30:00 Dirección media do vento (graos) 210
1 2007-08-14 21:40:00 Dirección media do vento (graos) 210
1 2007-08-14 21:50:00 Dirección media do vento (graos) 206
1 2007-08-14 22:00:00 Dirección media do vento (graos) 217
1 2007-08-14 20:00:00 Refacho a 10 m (m/s) 17,25
1 2007-08-14 20:10:00 Refacho a 10 m (m/s) 18,8
1 2007-08-14 20:20:00 Refacho a 10 m (m/s) 21,59
1 2007-08-14 20:30:00 Refacho a 10 m (m/s) 19,73
1 2007-08-14 20:40:00 Refacho a 10 m (m/s) 18,59
1 2007-08-14 20:50:00 Refacho a 10 m (m/s) 14,67
1 2007-08-14 21:00:00 Refacho a 10 m (m/s) 17,87
1 2007-08-14 21:10:00 Refacho a 10 m (m/s) 17,35
1 2007-08-14 21:20:00 Refacho a 10 m (m/s) 17,77
1 2007-08-14 21:30:00 Refacho a 10 m (m/s) 12,6
1 2007-08-14 21:40:00 Refacho a 10 m (m/s) 14,98
1 2007-08-14 21:50:00 Refacho a 10 m (m/s) 16,63
1 2007-08-14 22:00:00 Refacho a 10 m (m/s) 15,8
1 2007-08-14 20:00:00 Dirección do Refacho a 10 m (graos) 195
1 2007-08-14 20:10:00 Dirección do Refacho a 10 m (graos) 194
1 2007-08-14 20:20:00 Dirección do Refacho a 10 m (graos) 220
1 2007-08-14 20:30:00 Dirección do Refacho a 10 m (graos) 210
1 2007-08-14 20:40:00 Dirección do Refacho a 10 m (graos) 203
1 2007-08-14 20:50:00 Dirección do Refacho a 10 m (graos) 205
1 2007-08-14 21:00:00 Dirección do Refacho a 10 m (graos) 199
1 2007-08-14 21:10:00 Dirección do Refacho a 10 m (graos) 209
1 2007-08-14 21:20:00 Dirección do Refacho a 10 m (graos) 201
1 2007-08-14 21:30:00 Dirección do Refacho a 10 m (graos) 201
1 2007-08-14 21:40:00 Dirección do Refacho a 10 m (graos) 213
1 2007-08-14 21:50:00 Dirección do Refacho a 10 m (graos) 190
1 2007-08-14 22:00:00 Dirección do Refacho a 10 m (graos) 222
1 2007-08-14 20:00:00 Choiva (mm) 0
1 2007-08-14 20:10:00 Choiva (mm) 0
1 2007-08-14 20:20:00 Choiva (mm) 0
1 2007-08-14 20:30:00 Choiva (mm) 0
1 2007-08-14 20:40:00 Choiva (mm) 0
1 2007-08-14 20:50:00 Choiva (mm) 0
1 2007-08-14 21:00:00 Choiva (mm) 0
1 2007-08-14 21:10:00 Choiva (mm) 0
1 2007-08-14 21:20:00 Choiva (mm) 0
1 2007-08-14 21:30:00 Choiva (mm) 0
1 2007-08-14 21:40:00 Choiva (mm) 0
1 2007-08-14 21:50:00 Choiva (mm) 0
1 2007-08-14 22:00:00 Choiva (mm) 0
1 2007-08-14 20:00:00 Presión barométrica (hPa) 1002,7
1 2007-08-14 20:10:00 Presión barométrica (hPa) 1002,6
1 2007-08-14 20:20:00 Presión barométrica (hPa) 1002,6
1 2007-08-14 20:30:00 Presión barométrica (hPa) 1002,6
1 2007-08-14 20:40:00 Presión barométrica (hPa) 1002,8
1 2007-08-14 20:50:00 Presión barométrica (hPa) 1002,8
1 2007-08-14 21:00:00 Presión barométrica (hPa) 1002,9
1 2007-08-14 21:10:00 Presión barométrica (hPa) 1003,1
1 2007-08-14 21:20:00 Presión barométrica (hPa) 1003,2
1 2007-08-14 21:30:00 Presión barométrica (hPa) 1003,2
1 2007-08-14 21:40:00 Presión barométrica (hPa) 1003,1
1 2007-08-14 21:50:00 Presión barométrica (hPa) 1003,1
1 2007-08-14 22:00:00 Presión barométrica (hPa) 1003,2
1 2007-08-14 20:00:00 Presión reducida ao nivel do mar (hPa) 1008,5
1 2007-08-14 20:10:00 Presión reducida ao nivel do mar (hPa) 1008,4
1 2007-08-14 20:20:00 Presión reducida ao nivel do mar (hPa) 1008,4
1 2007-08-14 20:30:00 Presión reducida ao nivel do mar (hPa) 1008,4
1 2007-08-14 20:40:00 Presión reducida ao nivel do mar (hPa) 1008,6
1 2007-08-14 20:50:00 Presión reducida ao nivel do mar (hPa) 1008,6
1 2007-08-14 21:00:00 Presión reducida ao nivel do mar (hPa) 1008,7
1 2007-08-14 21:10:00 Presión reducida ao nivel do mar (hPa) 1008,9
1 2007-08-14 21:20:00 Presión reducida ao nivel do mar (hPa) 1009
1 2007-08-14 21:30:00 Presión reducida ao nivel do mar (hPa) 1009
1 2007-08-14 21:40:00 Presión reducida ao nivel do mar (hPa) 1008,9
1 2007-08-14 21:50:00 Presión reducida ao nivel do mar (hPa) 1008,9
1 2007-08-14 22:00:00 Presión reducida ao nivel do mar (hPa) 1009

2007/08/07

Lumes de artificio naturais, cortesía da chuvia de meteoritos das Perseidas


O que segue é unha adaptación de ESA: http://www.esa.int/esaSC/SEM9Q6UL05F_index_0.html, cunha das imaxes que no artigo aparece:

A chuvia de estrelas das Perseidas chega ó seu cúmio o 13 de agosto, cando se poden contemplar fogos de artificio naturais no ceo. A chuvia de meteoritos, ou 'estrelas fugaces', aparece como se de fogonazos no ceo se tratara, ó longo da noite.
As colas de pó son deixadas tras de si por cada cometa nas proximidades do Sol. Como a órbita terrestre cruza o pó exectado polo cometa Swift-Tuttle cada agosto, provoca un espectáculo fabuloso ós observadores terrestres. Ó entrar as aprtículas na atmósfera, quencen polo rozamento ata chegar a encenderse, producindo os fogos de artificio. Neste caso de agosto, o fenómeno chámase a chuvia de estrelas das Perseidas, pois parece que os puntos luminosos proveñen desa zona do ceo, da de Perseo.
Este ano as perseidas son visibles do 17 de xullo ó 24 de agosto, poidéndose ver unha ou dúas por hora no seu comezo, o que se incrementa ata unhas cinco ou dez por hora ó comezar agosto, ata un máximo de 80 a 100 meteoros hora no seu máximo no amencer do 13 de agosto (claro está, sempre que o tempo meteorolóxico o permita).
Así, o mellor momento para observación é a madrugada do 13, o que se ve favorecido porque o 12 hai Lúa Nova, e polo tanto, menos luz de fondo no ceo. Ademáis, este ano 2007 Marte é visible como un punto vermello brilante no Este, despois da media noite.
Non son necesarios instrumentos de observación: a chuvia de meteoritos é visible a ollo nu. É máis importante estar nunha zona obscura, sen iluminación de fondo, contaminación, ... É cousa de reclinarse de xeito confortable, adaptar os ollos á visión da noite e sinxelamente mirar a aparición das estrelas ó ancho do ceo.
(ver tamén o resume correspondente ó artigo da NASA sobre as Perseidas)

2007/08/06

A difusión da ciencia


Por contraposición ó que ocorre nas aulas ou noutros lugares, ás veces sorprende o doado que pode ser a difusión da ciencia. Aquí, un exemplo portugués, na área de bioloxía (animais en extinción): en sobres de azucre.

2007/08/01

Sol de medianoite



A partir do círculo polar cara ó norte, o día efectivo dura medio ano, e pódese ver como, por exemplo, é luminosa a zona do chan e obscura a superior. as dúas fotos (cortesía de María Gregorio Montes) presentan o fenómeno, visto dende un avión (nótase que as fiestras non estaban 'novas e limpas') o pasado verán 2006. Coido que se poden facer moitos comentarios ó respecto (como por exemplo, que o ceo esteña máis obscuro por arriba que por abaixo), aínda que non se viaxe nunha liña de aviación que atravese a zona polar, só vendo as fotos, pero polo momento, deixámolo así.
El Tiempo en Ribadeo - Predicción a 7 días y condiciones actuales.